Regional Weather Roundup
Issued by NWS

Home | Current Version | Previous Version | Graphics & Text | Print | Product List | Glossary On
Versions: 1 2 3 4 5 6 7 8 9 10 11 12 13 14 15 16 17 18 19 20 21 22 23 24 25 26 27 28 29 30 31 32 33 34 35 36 37 38 39 40 41 42 43 44 45 46 47 48 49 50
646
ASUS45 KBOI 301310
RWRID

IDAHO REGIONAL WEATHER ROUNDUP
NATIONAL WEATHER SERVICE BOISE ID
700 AM MDT MON MAY 30 2016

NOTE: "FAIR" INDICATES FEW OR NO CLOUDS BELOW 12000 FEET
WITH NO SIGNIFICANT WEATHER AND/OR OBSTRUCTIONS TO VISIBILITY

IDZ012-014-301400-
SOUTHWEST IDAHO


CITY           SKY/WX    TMP DP  RH WIND       PRES   REMARKS
BOISE          PTCLDY    52  38  58 NW8       30.13R
CALDWELL       PTCLDY    52  40  63 W13       30.14R
MOUNTAIN HOME  PTCLDY    56  42  59 NW16      30.11R
$$

IDZ016-017-301400-
SOUTHCENTRAL IDAHO


CITY           SKY/WX    TMP DP  RH WIND       PRES   REMARKS
BURLEY         CLEAR     54  40  59 W14       30.09R
JEROME         CLEAR     50  39  66 SW8       30.11R
TWIN FALLS     CLEAR     51  37  58 SW14      30.12R
$$

IDZ019>023-301400-
SOUTHEAST IDAHO


CITY           SKY/WX    TMP DP  RH WIND       PRES   REMARKS
IDAHO FALLS    SUNNY     50  42  74 SW10      30.09R
POCATELLO      PTCLDY    52  44  74 SW16      30.10R
REXBURG        SUNNY     51  41  68 S9        30.08R
$$

IDZ006-010-011-018-031-032-301400-
CENTRAL IDAHO MOUNTAINS


CITY           SKY/WX    TMP DP  RH WIND       PRES   REMARKS
MCCALL         CLEAR     43  32  65 N8        30.16R
HAILEY         CLEAR     43  34  70 NW12      30.13F
STANLEY          N/A     30  25  81 CALM      30.19R
SALMON         PTCLDY    45  36  70 S3        30.11S
CHALLIS        CLEAR     43  31  62 CALM      30.13R
$$

IDZ002-004-006-007-026-301400-
NORTHERN IDAHO


CITY           SKY/WX    TMP DP  RH WIND       PRES   REMARKS
LEWISTON       CLEAR     56  37  49 W7        30.17R
LOWELL           N/A     50  47  89 CALM      30.19R
COEUR D`ALENE  CLEAR     45  37  76 CALM      30.15R
MULLAN PASS    CLEAR     34  30  85 NW8       30.14R WCI  27
$$




USA.gov is the U.S. government's official web portal to all federal, state and local government web resources and services.